Regional Weather Roundup
Issued by NWS

Home | Current Version | Previous Version | Text Only | Print | Product List | Glossary Off
Versions: 1 2 3 4 5 6 7 8 9 10 11 12 13 14 15 16 17 18 19 20 21 22 23 24 25 26 27 28 29 30 31 32 33 34 35 36 37 38 39 40 41 42 43 44 45 46 47 48 49 50

000
ASUS43 KDTX 311101
RWRMI
MICHIGAN HOURLY REGIONAL WEATHER ROUNDUP
NATIONAL WEATHER SERVICE DETROIT/PONTIAC MI
700 AM EDT WED AUG 31 2016

NOTE: "FAIR" INDICATES FEW OR NO CLOUDS BELOW 12,000 FEET WITH NO
SIGNIFICANT WEATHER AND/OR OBSTRUCTION TO VISIBILITY.

MIZ047>049-052>055-059>063-066>070-074>076-081>083-311200-
SOUTHEAST LOWER MICHIGAN

CITY           SKY/WX    TMP DP  RH WIND       PRES   REMARKS
ADRIAN         CLOUDY    67  67 100 CALM      30.02R
ALMA           MOCLDY    66  66  98 N3        30.04R
ANN ARBOR      CLOUDY    69  69 100 SW3       30.00R
BAD AXE        CLOUDY    63  59  86 N3        30.03R
CARO           CLOUDY    65  60  85 CALM      30.01S
DETROIT CITY   CLOUDY    71  70  96 CALM      29.99R
DETROIT        LGT RAIN  71  69  93 W6        30.00S
FLINT          CLOUDY    70  69  97 NW5       30.01R FOG
GROSSE ILE     CLOUDY    70  68  93 W3        29.98S
HILLSDALE      CLOUDY    68  67  96 NW3       30.02R FOG
HOWELL         CLOUDY    69  69  98 NW3       30.01R FOG

CITY           SKY/WX    TMP DP  RH WIND       PRES   REMARKS
JACKSON        CLOUDY    69  69 100 CALM      30.02R
LAMBERTVILLE   CLOUDY    70  68  94 CALM      30.00F FOG
LANSING        CLOUDY    70  67  90 N6        30.02R
LAPEER         CLOUDY    69  67  93 N5        30.01R
MASON          CLOUDY    68  67  95 N3        30.01S
MONROE         CLOUDY    69  69 100 SW5       29.99S FOG
MT. CLEMENS    CLOUDY    70  70  98 NW3       29.97R
PONTIAC        CLOUDY    70  68  93 N5        29.99S
PORT HOPE        N/A     68  58  70 NW8       30.00S
PORT HURON     CLOUDY    70  68  94 CALM      29.99S
TRI CITIES     MOCLDY    66  64  93 NE5       30.03R
MIDLAND        FAIR      64  63  96 CALM      30.03R
TROY           CLOUDY    70  67  90 CALM      30.01S
SAGINAW HB     CLOUDY    68  61  77 N7        30.02R
$$
MIZ043>046-050>051-056>058-064>065-071>073-077>080-311200-
SOUTHWEST LOWER MICHIGAN

CITY           SKY/WX    TMP DP  RH WIND       PRES   REMARKS
BATTLE CREEK   CLOUDY    69  69 100 N5        30.02S
BENTON HARBOR  PTCLDY    70  68  93 CALM      30.01R FOG
BIG RAPIDS     CLOUDY    63  60  88 CALM      30.05S
COLDWATER      FOG       69  69 100 CALM      30.02S VSB 3/4
FREMONT        CLOUDY    64  64  97 E5        30.04R
HOLLAND        CLOUDY    71  69  93 CALM      30.02S
GRAND RAPIDS   CLOUDY    70  68  93 N5        30.02S FOG
IONIA          CLOUDY    69  67  95 N9        30.02S
KALAMAZOO      CLOUDY    71  68  90 N5        30.02R FOG
LUDINGTON      CLEAR     58  55  90 N3        30.06S
MARSHALL       CLOUDY    70  69  98 CALM      30.01S
MOUNT PLEASANT CLOUDY    66  63  89 N3        30.03S
MUSKEGON       CLOUDY    70  67  90 NE8       30.03R
SOUTH HAVEN    CLOUDY    69  69  99 CALM      30.01S FOG
$$
MIZ016>042-311200-
NORTHERN LOWER MICHIGAN

CITY           SKY/WX    TMP DP  RH WIND       PRES   REMARKS
ALPENA         CLEAR     55  53  93 W5        30.03S
BEAVER ISLAND  CLEAR     60  55  85 CALM      30.08S
BELLAIRE       PTCLDY    52  50  95 CALM      30.07R
CADILLAC       CLEAR     57  52  84 CALM      30.07S
CHARLEVOIX     PTCLDY    65  57  77 N9        30.09S
FRANKFORT      CLEAR     56  54  91 CALM      30.07S
GAYLORD        CLEAR     58  53  84 CALM      30.07R
GRAYLING       CLEAR     53  52  97 W3        30.07S
HARBOR SPRINGS CLEAR     57  56  95 N6        30.06S
HOUGHTON LAKE  CLEAR     59  54  83 N5        30.07S
MANISTEE       CLEAR     55  54  96 CALM      30.07R
OSCODA         MOCLDY    58  56  94 NW7       30.01S
PELLSTON       CLEAR     52  50  93 W3        30.06S
ROGERS CITY    CLEAR     59  57  92 W3        30.04S
TRAVERSE CITY  PTCLDY    65  57  75 NW5       30.05S
$$
MIZ007>008-015-311200-
EASTERN UPPER MICHIGAN

CITY           SKY/WX    TMP DP  RH WIND       PRES   REMARKS
KINROSS        CLEAR     55  55 100 W5        30.07R
MACKINAC ISLAN CLEAR     57  57 100 N5        30.06R
NEWBERRY       CLEAR     57  56  97 W7        30.08S
S. S. MARIE    CLEAR     57  53  86 NW5       30.05R
MUNISING         N/A     53  53 100 S5        30.09S
$$
MIZ004>006-011>014-085-311200-
CENTRAL UPPER MICHIGAN

CITY           SKY/WX    TMP DP  RH WIND       PRES   REMARKS
MANISTIQUE     CLEAR     53  51  92 NW5       30.08S
ESCANABA       CLEAR     51  50  96 NW3       30.10R
MENOMINEE      CLEAR    N/A N/A N/A MISG      30.12R
$$
MIZ001>003-009>011-084-311200-
WESTERN UPPER MICHIGAN

CITY           SKY/WX    TMP DP  RH WIND       PRES   REMARKS
IRON MOUNTAIN  CLEAR     49  45  86 NW3       30.12S
HOUGHTON       PTCLDY    55  52  89 NW8       30.13R
COPPER HARBOR    N/A     60  57  89 VRB5      30.11R
IRONWOOD       CLEAR     47  46  97 CALM      30.18S FOG
$$

ABBREVIATIONS USED IN REMARKS
   TC - TEMPERATURE IN CELSIUS
  WCI - WIND CHILL INDEX
   HX - HEAT INDEX
  VSB - VISIBILITY





USA.gov is the U.S. government's official web portal to all federal, state and local government web resources and services.